This demonstration page uses our WeatherBlox Daily Observations layout. Learn more.

Left ArrowRight Arrow

38.83388, -104.82136

Hourly Observations for November 4, 2019

Temp ( °F °C ) Dew Point ( °F °C ) Humidity (%) Winds ( mph kmh ) Pressure ( in mb ) Visibility ( mi km ) Precip ( " mm )
12:58 am 00:58 undefined N/A N/A N/A SSE 8 13 N/A N/A 0.00 0.00
1:58 am 01:58 Clear 38 3.6 17 -8.5 41 41 S 10 17 29.62 1003 10 16 0.00 0.00
2:58 am 02:58 Clear 35 1.8 18 -7.9 49 49 SSE 7 11 29.66 1004 10 16 0.00 0.00
3:58 am 03:58 Clear 38 3.1 17 -8.2 44 44 S 10 17 29.67 1005 10 16 0.00 0.00
4:58 am 04:58 Clear 36 2.4 18 -7.9 47 47 SSE 8 13 29.69 1005 10 16 0.00 0.00
5:58 am 05:58 Mostly Cloudy 34 0.9 19 -7.2 55 55 Calm 30.03 1017 10 16 0.00 0.00
6:58 am 06:58 Mostly Cloudy 32 0 20 -6.6 62 62 SSE 3 6 29.75 1007 10 16 0.00 0.00
7:58 am 07:58 Mostly Sunny 33 0.4 21 -6.1 62 62 Calm 29.78 1008 10 16 0.00 0.00
8:58 am 08:58 Mostly Cloudy 35 1.4 23 -4.9 63 63 Calm 29.77 1008 10 16 0.00 0.00
10:58 am 10:58 Mostly Sunny 40 4.2 24 -4.2 55 55 E 3 6 29.77 1008 10 16 0.00 0.00
11:58 am 11:58 Sunny 41 5 26 -3.5 55 55 ESE 3 6 29.93 1014 10 16 0.00 0.00
12:58 pm 12:58 Sunny 43 6.1 24 -4.3 48 48 E 3 6 29.71 1006 10 16 0.00 0.00
1:58 pm 13:58 Sunny 44 6.4 25 -3.9 48 48 WNW 5 7 29.72 1006 10 16 0.00 0.00
2:58 pm 14:58 Sunny 41 4.9 26 -3.4 55 55 WNW 3 6 29.77 1008 10 16 0.00 0.00
3:58 pm 15:58 Sunny 42 5.4 27 -3 55 55 SSE 5 7 29.77 1008 10 16 0.00 0.00
4:59 pm 16:59 undefined N/A N/A N/A undefined N/A N/A N/A 0.00 0.00
5:58 pm 17:58 Clear 38 3.4 26 -3.4 61 61 WNW 6 9 29.86 1011 10 16 0.00 0.00
6:58 pm 18:58 Clear 38 3.4 27 -3 63 63 S 6 9 29.89 1012 10 16 0.00 0.00
7:58 pm 19:58 Clear 38 3.4 27 -3 63 63 SW 5 7 29.90 1013 10 16 0.00 0.00
8:58 pm 20:58 Clear 37 2.5 27 -2.7 69 69 SSE 8 13 29.92 1013 10 16 0.00 0.00
9:58 pm 21:58 Clear 37 2.8 27 -2.8 67 67 SSE 10 17 30.14 1021 10 16 0.00 0.00
10:58 pm 22:58 Clear 36 2.2 27 -2.7 70 70 SSE 12 19 29.91 1013 10 16 0.00 0.00
11:58 pm 23:58 Clear 31 -0.6 27 -3 84 84 SSE 6 9 29.91 1013 10 16 0.00 0.00

Powered by AerisWeather